TimeCST,TemperatureF,Dew PointF,Humidity,Sea Level PressureIn,VisibilityMPH,Wind Direction,Wind SpeedMPH,Gust SpeedMPH,PrecipitationIn,Events,Conditions,WindDirDegrees,DateUTC
12:53 AM,30.9,30.9,100,30.23,10.0,Calm,Calm,-,N/A,,Clear,0,2013-02-03 06:53:00
1:53 AM,28.9,28.0,96,30.23,10.0,Calm,Calm,-,N/A,,Clear,0,2013-02-03 07:53:00
2:53 AM,30.9,30.0,96,30.22,10.0,Calm,Calm,-,N/A,,Clear,0,2013-02-03 08:53:00
3:53 AM,30.9,30.0,96,30.22,10.0,South,3.5,-,N/A,,Clear,180,2013-02-03 09:53:00
4:53 AM,32.0,30.9,96,30.21,9.0,South,4.6,-,N/A,,Clear,190,2013-02-03 10:53:00
5:53 AM,30.9,30.0,96,30.22,9.0,South,5.8,-,N/A,,Clear,180,2013-02-03 11:53:00
6:53 AM,30.9,30.0,96,30.22,10.0,South,6.9,-,N/A,,Clear,180,2013-02-03 12:53:00
7:53 AM,36.0,35.1,97,30.23,10.0,South,5.8,-,N/A,,Clear,180,2013-02-03 13:53:00
8:53 AM,46.0,39.0,76,30.25,10.0,Calm,Calm,-,N/A,,Clear,0,2013-02-03 14:53:00
9:53 AM,52.0,36.0,54,30.25,10.0,NNW,9.2,-,N/A,,Clear,330,2013-02-03 15:53:00
10:53 AM,55.9,34.0,44,30.25,10.0,NNW,8.1,-,N/A,,Clear,340,2013-02-03 16:53:00
11:53 AM,59.0,30.9,35,30.23,10.0,North,13.8,20.7,N/A,,Clear,350,2013-02-03 17:53:00
12:53 PM,60.1,30.9,33,30.20,10.0,WNW,9.2,17.3,N/A,,Clear,300,2013-02-03 18:53:00
1:53 PM,60.1,28.9,31,30.19,10.0,WNW,13.8,21.9,N/A,,Clear,300,2013-02-03 19:53:00
2:53 PM,59.0,25.0,27,30.18,10.0,NW,11.5,18.4,N/A,,Clear,310,2013-02-03 20:53:00
3:53 PM,59.0,26.1,28,30.17,10.0,NW,8.1,-,N/A,,Clear,320,2013-02-03 21:53:00
4:53 PM,57.0,28.9,34,30.17,10.0,NNW,8.1,-,N/A,,Clear,340,2013-02-03 22:53:00
5:53 PM,51.1,28.9,43,30.17,10.0,North,3.5,-,N/A,,Clear,360,2013-02-03 23:53:00
6:53 PM,43.0,32.0,65,30.18,10.0,Calm,Calm,-,N/A,,Clear,0,2013-02-04 00:53:00
7:53 PM,39.9,32.0,73,30.18,10.0,Calm,Calm,-,N/A,,Clear,0,2013-02-04 01:53:00
8:53 PM,35.1,30.9,85,30.18,10.0,ENE,3.5,-,N/A,,Clear,70,2013-02-04 02:53:00
9:53 PM,34.0,30.0,85,30.17,10.0,ENE,5.8,-,N/A,,Clear,70,2013-02-04 03:53:00
10:53 PM,34.0,30.0,85,30.16,10.0,Calm,Calm,-,N/A,,Clear,0,2013-02-04 04:53:00
11:53 PM,36.0,32.0,86,30.13,10.0,NE,3.5,-,N/A,,Clear,50,2013-02-04 05:53:00